Rutherfordton, NC

2:06 PM EST on February 06, 2016 (GMT -0500)
Rutherford County-Marchman

Weather History for KFQD - November, 2012

Change the Weather History Date:

Monday, November 5, 2012

  Actual Average (KAVL) Record (KAVL)
Temperature  
Mean Temperature 48 °F 50 °F  
Max Temperature 60 °F 63 °F 77 °F (1994)
Min Temperature 38 °F 39 °F 21 °F (2006)
Degree Days  
Heating Degree Days 16 15  
Month to date heating degree days 70  
Since 1 July heating degree days 405  
Cooling Degree Days 0 0  
Month to date cooling degree days 0  
Year to date cooling degree days 862  
Moisture  
Dew Point 34 °F    
Average Humidity 58    
Maximum Humidity 87    
Minimum Humidity 36    
Precipitation  
Precipitation 0.00 in 0.11 in 1.29 in (1992)
Month to date precipitation 0.53  
Year to date precipitation 38.86  
Snow  
Snow 0.00 in 0.00 in 0.30 in (1962)
Month to date snowfall 0.0  
Since 1 July snowfall 0.0  
Since 1 September snowfall 0.0  
Snow Depth -    
Sea Level Pressure  
Sea Level Pressure 30.04 in    
Wind  
Wind Speed 3 mph (East)    
Max Wind Speed 9 mph    
Max Gust Speed -    
Visibility 10 miles    
Events      
T = Trace of Precipitation, MM = Missing Value Source: NWS Daily Summary

Daily Weather History Graph

Daily Weather History Graph

Search for Another Location

Airport or City:

Trip Planner

Search our weather history database for the weather conditions in past years. The results will help you decide how hot, cold, wet, or windy it might be!

Date:

Astronomy

Nov. 05, 2012 Rise Set
Actual Time 6:53 AM EST 5:28 PM EST
Civil Twilight 6:27 AM EST 5:55 PM EST
Nautical Twilight 5:56 AM EST 6:25 PM EST
Astronomical Twilight 5:26 AM EST 6:55 PM EST
Moon 11:04 PM EST (11/5) 12:11 PM EST (11/5)
Length of Visible Light 11h 27m
Length of Day
10h 34m
Waning Gibbous, 63% of the Moon is Illuminated
Nov 5
Waning Gibbous
Nov 6
Last Quarter
Nov 13
New
Nov 20
First Quarter
Nov 28
Full

Hourly Weather History & Observations

Time (EST) Temp. Windchill Dew Point Humidity Pressure Visibility Wind Dir Wind Speed Gust Speed Precip Events Conditions
12:15 AM 52.2 °F - 39.2 °F 61% 30.01 in 10.0 mi NE 9.2 mph - N/A   Mostly Cloudy
12:35 AM 52.0 °F - 38.5 °F 60% 30.01 in 10.0 mi NE 4.6 mph - N/A   Overcast
12:55 AM 52.0 °F - 37.9 °F 59% 30.01 in 10.0 mi NNE 6.9 mph - N/A   Overcast
1:15 AM 51.8 °F - 37.4 °F 58% 30.02 in 10.0 mi NE 6.9 mph - N/A   Overcast
1:35 AM 51.4 °F - 37.0 °F 58% 30.02 in 10.0 mi Calm Calm - N/A   Overcast
1:55 AM 51.1 °F - 36.5 °F 57% 30.03 in 10.0 mi NE 4.6 mph - N/A   Overcast
2:15 AM 50.9 °F - 36.1 °F 57% 30.03 in 10.0 mi NNE 4.6 mph - N/A   Overcast
2:35 AM 50.2 °F - 35.8 °F 58% 30.03 in 10.0 mi NNE 4.6 mph - N/A   Overcast
2:55 AM 49.6 °F - 35.6 °F 59% 30.03 in 10.0 mi NNE 3.5 mph - N/A   Mostly Cloudy
3:15 AM 48.2 °F - 35.6 °F 62% 30.03 in 10.0 mi Calm Calm - N/A   Scattered Clouds
3:35 AM 47.5 °F - 35.1 °F 62% 30.03 in 10.0 mi Calm Calm - N/A   Mostly Cloudy
4:15 AM 46.0 °F 44.8 °F 34.2 °F 63% 30.05 in 10.0 mi North 3.5 mph - N/A   Scattered Clouds
4:35 AM 46.4 °F - 34.0 °F 62% 30.05 in 10.0 mi Calm Calm - N/A   Mostly Cloudy
4:55 AM 45.3 °F - 34.0 °F 65% 30.06 in 10.0 mi Calm Calm - N/A   Scattered Clouds
5:15 AM 42.1 °F - 35.4 °F 77% 30.06 in 10.0 mi Calm Calm - N/A   Clear
5:35 AM 43.3 °F - 34.3 °F 71% 30.06 in 10.0 mi Calm Calm - N/A   Scattered Clouds
5:55 AM 40.8 °F - 35.1 °F 80% 30.06 in 10.0 mi Calm Calm - N/A   Scattered Clouds
6:15 AM 41.2 °F - 34.5 °F 77% 30.07 in 10.0 mi Calm Calm - N/A   Clear
6:35 AM 42.1 °F - 34.9 °F 76% 30.07 in 10.0 mi Calm Calm - N/A   Clear
6:55 AM 40.6 °F - 34.9 °F 80% 30.07 in 10.0 mi Calm Calm - N/A   Clear
7:15 AM 40.1 °F - 34.7 °F 81% 30.07 in 10.0 mi Calm Calm - N/A   Clear
7:35 AM 38.3 °F - 34.7 °F 87% 30.08 in 10.0 mi Calm Calm - N/A   Clear
7:55 AM 42.6 °F - 36.3 °F 78% 30.09 in 10.0 mi Calm Calm - N/A   Clear
8:15 AM 42.8 °F - 35.8 °F 76% 30.09 in 10.0 mi Calm Calm - N/A   Clear
8:35 AM 44.1 °F - 36.7 °F 75% 30.09 in 10.0 mi Calm Calm - N/A   Clear
8:55 AM 46.0 °F - 36.0 °F 68% 30.09 in 10.0 mi Calm Calm - N/A   Clear
9:15 AM 47.5 °F - 35.6 °F 63% 30.09 in 10.0 mi Calm Calm - N/A   Clear
9:35 AM 48.6 °F - 36.1 °F 62% 30.09 in 10.0 mi Calm Calm - N/A   Clear
9:55 AM 48.7 °F - 36.1 °F 62% 30.09 in 10.0 mi Calm Calm - N/A   Clear
10:15 AM 50.5 °F - 36.5 °F 59% 30.09 in 10.0 mi Calm Calm - N/A   Clear
10:35 AM 51.6 °F - 36.1 °F 56% 30.09 in 10.0 mi South 3.5 mph - N/A   Clear
10:55 AM 53.2 °F - 34.9 °F 50% 30.09 in 10.0 mi West 3.5 mph - N/A   Clear
11:15 AM 54.5 °F - 36.0 °F 50% 30.08 in 10.0 mi SSW 3.5 mph - N/A   Clear
11:35 AM 55.2 °F - 35.4 °F 47% 30.07 in 10.0 mi WNW 4.6 mph - N/A   Clear
11:55 AM 55.6 °F - 34.2 °F 44% 30.06 in 10.0 mi West 4.6 mph - N/A   Clear
12:15 PM 56.5 °F - 33.6 °F 42% 30.05 in 10.0 mi West 5.8 mph - N/A   Clear
12:35 PM 57.2 °F - 33.1 °F 40% 30.04 in 10.0 mi West 3.5 mph - N/A   Clear
12:55 PM 58.5 °F - 32.9 °F 38% 30.03 in 10.0 mi SW 4.6 mph - N/A   Clear
1:15 PM 59.0 °F - 32.4 °F 37% 30.02 in 10.0 mi SW 3.5 mph - N/A   Clear
1:35 PM 58.8 °F - 32.4 °F 37% 30.02 in 10.0 mi Calm Calm - N/A   Clear
1:55 PM 59.4 °F - 33.1 °F 37% 30.01 in 10.0 mi Calm Calm - N/A   Clear
2:15 PM 57.2 °F - 33.3 °F 40% 30.01 in 10.0 mi Calm Calm - N/A   Scattered Clouds
2:35 PM 57.4 °F - 32.7 °F 39% 30.00 in 10.0 mi Calm Calm - N/A   Scattered Clouds
2:55 PM 58.5 °F - 32.9 °F 38% 30.00 in 10.0 mi Calm Calm - N/A   Clear
3:15 PM 58.6 °F - 32.4 °F 37% 29.99 in 10.0 mi Calm Calm - N/A   Clear
3:35 PM 59.0 °F - 31.6 °F 36% 29.99 in 10.0 mi SE 4.6 mph - N/A   Clear
3:55 PM 59.0 °F - 32.5 °F 37% 29.99 in 10.0 mi Calm Calm - N/A   Clear
4:15 PM 58.6 °F - 32.0 °F 37% 30.00 in 10.0 mi East 4.6 mph - N/A   Clear
4:35 PM 58.3 °F - 32.0 °F 37% 29.99 in 10.0 mi ESE 3.5 mph - N/A   Clear
4:55 PM 56.8 °F - 32.4 °F 40% 30.00 in 10.0 mi SE 4.6 mph - N/A   Clear
5:15 PM 54.7 °F - 33.6 °F 45% 30.01 in 10.0 mi SE 4.6 mph - N/A   Clear
5:35 PM 53.8 °F - 33.8 °F 47% 30.01 in 10.0 mi SE 4.6 mph - N/A   Clear
5:55 PM 52.9 °F - 33.8 °F 48% 30.01 in 10.0 mi SE 3.5 mph - N/A   Clear
6:15 PM 52.3 °F - 33.3 °F 48% 30.02 in 10.0 mi SE 4.6 mph - N/A   Clear
6:35 PM 52.2 °F - 33.1 °F 48% 30.03 in 10.0 mi Calm Calm - N/A   Clear
6:55 PM 51.8 °F - 32.9 °F 49% 30.03 in 10.0 mi ESE 3.5 mph - N/A   Clear
7:15 PM 50.9 °F - 33.4 °F 51% 30.03 in 10.0 mi ESE 4.6 mph - N/A   Clear
7:35 PM 50.4 °F - 33.1 °F 52% 30.04 in 10.0 mi ESE 4.6 mph - N/A   Clear
7:55 PM 49.5 °F - 32.9 °F 53% 30.04 in 10.0 mi East 3.5 mph - N/A   Clear
8:15 PM 49.1 °F - 32.4 °F 53% 30.05 in 10.0 mi East 3.5 mph - N/A   Clear
8:35 PM 48.6 °F - 32.0 °F 53% 30.05 in 10.0 mi East 3.5 mph - N/A   Clear
8:55 PM 48.2 °F - 32.0 °F 54% 30.06 in 10.0 mi Calm Calm - N/A   Clear
9:15 PM 44.4 °F - 33.1 °F 64% 30.06 in 10.0 mi Calm Calm - N/A   Clear
9:35 PM 43.2 °F - 33.8 °F 70% 30.06 in 10.0 mi Calm Calm - N/A   Scattered Clouds
9:55 PM 46.6 °F - 31.6 °F 56% 30.06 in 10.0 mi Calm Calm - N/A   Scattered Clouds
10:15 PM 40.6 °F - 34.5 °F 79% 30.07 in 10.0 mi Calm Calm - N/A   Clear
10:35 PM 42.6 °F 40.9 °F 32.9 °F 68% 30.07 in 10.0 mi NNE 3.5 mph - N/A   Clear
10:55 PM 40.8 °F - 34.0 °F 77% 30.07 in 10.0 mi Calm Calm - N/A   Mostly Cloudy
11:15 PM 41.0 °F 39.0 °F 34.5 °F 78% 30.06 in 10.0 mi NNE 3.5 mph - N/A   Overcast
11:35 PM 40.8 °F - 34.7 °F 79% 30.06 in 10.0 mi Calm Calm - N/A   Mostly Cloudy
11:55 PM 40.3 °F 38.2 °F 34.7 °F 80% 30.06 in 10.0 mi NW 3.5 mph - N/A   Mostly Cloudy